Back to catalog

ZHANGHENG 1

AliveScienceSSO
NORAD 43194·PAYLOAD·🇨🇳 China

Launched Feb 2, 2018 from Jiuquan Satellite Launch Center

Loading…

Next Passes (next 24 hours)

TLE

FreshSource: Space-Track

Epoch: Sep 14, 2026, 14:53 UTC

1 43194U 18015C   26257.62042896  .00005442  00000-0  25098-3 0  9997
2 43194  97.6960  65.1050 0013575 330.6579  29.3892 15.20612573478230

Track ZHANGHENG 1 in real time with AllMySat

Download on the App Store